Year,Month,Day,Hour,Minute,Value (Times are PST for temperature in C)
2014,09,20,00,00,16.20
2014,09,20,00,01,16.20
2014,09,20,00,02,16.20
2014,09,20,00,03,16.10
2014,09,20,00,04,16.10
2014,09,20,00,05,16.10
2014,09,20,00,06,16.00
2014,09,20,00,07,16.00
2014,09,20,00,08,15.90
2014,09,20,00,09,15.80
2014,09,20,00,10,15.70
2014,09,20,00,11,15.60
2014,09,20,00,12,15.50
2014,09,20,00,13,15.50
2014,09,20,00,14,15.40
2014,09,20,00,15,15.40
2014,09,20,00,16,15.30
2014,09,20,00,17,15.30
2014,09,20,00,18,15.30
2014,09,20,00,19,15.30
2014,09,20,00,20,15.30
2014,09,20,00,21,15.20
2014,09,20,00,22,15.20
2014,09,20,00,23,15.20
2014,09,20,00,24,15.30
2014,09,20,00,25,15.30
2014,09,20,00,26,15.30
2014,09,20,00,27,15.30
2014,09,20,00,28,15.30
2014,09,20,00,29,15.30
2014,09,20,00,30,15.40
2014,09,20,00,31,15.40
2014,09,20,00,32,15.50
2014,09,20,00,33,15.60
2014,09,20,00,34,15.60
2014,09,20,00,35,15.60
2014,09,20,00,36,15.70
2014,09,20,00,37,15.70
2014,09,20,00,38,15.80
2014,09,20,00,39,15.80
2014,09,20,00,40,15.80
2014,09,20,00,41,15.90
2014,09,20,00,42,15.90
2014,09,20,00,43,15.90
2014,09,20,00,44,16.00
2014,09,20,00,45,16.00
2014,09,20,00,46,16.00
2014,09,20,00,47,16.00
2014,09,20,00,48,16.10
2014,09,20,00,49,16.10
2014,09,20,00,50,16.10
2014,09,20,00,51,16.10
2014,09,20,00,52,16.10
2014,09,20,00,53,16.10
2014,09,20,00,54,16.10
2014,09,20,00,55,16.10
2014,09,20,00,56,16.10
2014,09,20,00,57,16.10
2014,09,20,00,58,16.10
2014,09,20,00,59,16.10
2014,09,20,01,00,16.20
2014,09,20,01,01,16.20
2014,09,20,01,02,16.20
2014,09,20,01,03,16.20
2014,09,20,01,04,16.20
2014,09,20,01,05,16.20
2014,09,20,01,06,16.20
2014,09,20,01,07,16.20
2014,09,20,01,08,16.30
2014,09,20,01,09,16.30
2014,09,20,01,10,16.30
2014,09,20,01,11,16.30
2014,09,20,01,12,16.30
2014,09,20,01,13,16.30
2014,09,20,01,14,16.30
2014,09,20,01,15,16.30
2014,09,20,01,16,16.30
2014,09,20,01,17,16.30
2014,09,20,01,18,16.30
2014,09,20,01,19,16.30
2014,09,20,01,20,16.30
2014,09,20,01,21,16.30
2014,09,20,01,22,16.30
2014,09,20,01,23,16.30
2014,09,20,01,24,16.30
2014,09,20,01,25,16.30
2014,09,20,01,26,16.20
2014,09,20,01,27,16.20
2014,09,20,01,28,16.20
2014,09,20,01,29,16.20
2014,09,20,01,30,16.20
2014,09,20,01,31,16.20
2014,09,20,01,32,16.20
2014,09,20,01,33,16.20
2014,09,20,01,34,16.20
2014,09,20,01,35,16.20
2014,09,20,01,36,16.20
2014,09,20,01,37,16.20
2014,09,20,01,38,16.20
2014,09,20,01,39,16.20
2014,09,20,01,40,16.20
2014,09,20,01,41,16.20
2014,09,20,01,42,16.20
2014,09,20,01,43,16.20
2014,09,20,01,44,16.10
2014,09,20,01,45,16.10
2014,09,20,01,46,16.10
2014,09,20,01,47,16.10
2014,09,20,01,48,16.10
2014,09,20,01,49,16.00
2014,09,20,01,50,16.00
2014,09,20,01,51,16.00
2014,09,20,01,52,16.00
2014,09,20,01,53,16.00
2014,09,20,01,54,15.90
2014,09,20,01,55,15.90
2014,09,20,01,56,15.90
2014,09,20,01,57,15.90
2014,09,20,01,58,15.90
2014,09,20,01,59,15.90
2014,09,20,02,00,15.90
2014,09,20,02,01,15.80
2014,09,20,02,02,15.80
2014,09,20,02,03,15.80
2014,09,20,02,04,15.80
2014,09,20,02,05,15.80
2014,09,20,02,06,15.80
2014,09,20,02,07,15.80
2014,09,20,02,08,15.80
2014,09,20,02,09,15.80
2014,09,20,02,10,15.80
2014,09,20,02,11,15.80
2014,09,20,02,12,15.80
2014,09,20,02,13,15.80
2014,09,20,02,14,15.80
2014,09,20,02,15,15.80
2014,09,20,02,16,15.80
2014,09,20,02,17,15.80
2014,09,20,02,18,15.80
2014,09,20,02,19,15.80
2014,09,20,02,20,15.90
2014,09,20,02,21,15.90
2014,09,20,02,22,15.90
2014,09,20,02,23,15.90
2014,09,20,02,24,15.90
2014,09,20,02,25,15.90
2014,09,20,02,26,15.90
2014,09,20,02,27,15.90
2014,09,20,02,28,15.90
2014,09,20,02,29,15.90
2014,09,20,02,30,15.90
2014,09,20,02,31,15.90
2014,09,20,02,32,15.90
2014,09,20,02,33,16.00
2014,09,20,02,34,16.00
2014,09,20,02,35,16.00
2014,09,20,02,36,16.00
2014,09,20,02,37,16.00
2014,09,20,02,38,16.00
2014,09,20,02,39,15.90
2014,09,20,02,40,15.90
2014,09,20,02,41,15.90
2014,09,20,02,42,15.90
2014,09,20,02,43,15.90
2014,09,20,02,44,15.90
2014,09,20,02,45,15.90
2014,09,20,02,46,15.90
2014,09,20,02,47,15.80
2014,09,20,02,48,15.80
2014,09,20,02,49,15.80
2014,09,20,02,50,15.80
2014,09,20,02,51,15.80
2014,09,20,02,52,15.80
2014,09,20,02,53,15.70
2014,09,20,02,54,15.70
2014,09,20,02,55,15.70
2014,09,20,02,56,15.70
2014,09,20,02,57,15.60
2014,09,20,02,58,15.60
2014,09,20,02,59,15.50
2014,09,20,03,00,15.50
2014,09,20,03,01,15.40
2014,09,20,03,02,15.40
2014,09,20,03,03,15.30
2014,09,20,03,04,15.30
2014,09,20,03,05,15.30
2014,09,20,03,06,15.20
2014,09,20,03,07,15.20
2014,09,20,03,08,15.20
2014,09,20,03,09,15.10
2014,09,20,03,10,15.10
2014,09,20,03,11,15.00
2014,09,20,03,12,15.00
2014,09,20,03,13,15.00
2014,09,20,03,14,15.00
2014,09,20,03,15,15.00
2014,09,20,03,16,15.00
2014,09,20,03,17,15.00
2014,09,20,03,18,15.00
2014,09,20,03,19,15.00
2014,09,20,03,20,15.00
2014,09,20,03,21,15.00
2014,09,20,03,22,15.00
2014,09,20,03,23,15.00
2014,09,20,03,24,15.10
2014,09,20,03,25,15.10
2014,09,20,03,26,15.10
2014,09,20,03,27,15.10
2014,09,20,03,28,15.20
2014,09,20,03,29,15.20
2014,09,20,03,30,15.20
2014,09,20,03,31,15.20
2014,09,20,03,32,15.20
2014,09,20,03,33,15.20
2014,09,20,03,34,15.20
2014,09,20,03,35,15.20
2014,09,20,03,36,15.20
2014,09,20,03,37,15.20
2014,09,20,03,38,15.30
2014,09,20,03,39,15.30
2014,09,20,03,40,15.30
2014,09,20,03,41,15.30
2014,09,20,03,42,15.30
2014,09,20,03,43,15.30
2014,09,20,03,44,15.30
2014,09,20,03,45,15.30
2014,09,20,03,46,15.30
2014,09,20,03,47,15.30
2014,09,20,03,48,15.30
2014,09,20,03,49,15.30
2014,09,20,03,50,15.30
2014,09,20,03,51,15.30
2014,09,20,03,52,15.30
2014,09,20,03,53,15.30
2014,09,20,03,54,15.30
2014,09,20,03,55,15.30
2014,09,20,03,56,15.30
2014,09,20,03,57,15.30
2014,09,20,03,58,15.30
2014,09,20,03,59,15.30
2014,09,20,04,00,15.40
2014,09,20,04,01,15.40
2014,09,20,04,02,15.40
2014,09,20,04,03,15.40
2014,09,20,04,04,15.40
2014,09,20,04,05,15.40
2014,09,20,04,06,15.40
2014,09,20,04,07,15.40
2014,09,20,04,08,15.30
2014,09,20,04,09,15.30
2014,09,20,04,10,15.30
2014,09,20,04,11,15.30
2014,09,20,04,12,15.30
2014,09,20,04,13,15.30
2014,09,20,04,14,15.30
2014,09,20,04,15,15.30
2014,09,20,04,16,15.30
2014,09,20,04,17,15.30
2014,09,20,04,18,15.20
2014,09,20,04,19,15.20
2014,09,20,04,20,15.20
2014,09,20,04,21,15.20
2014,09,20,04,22,15.20
2014,09,20,04,23,15.20
2014,09,20,04,24,15.20
2014,09,20,04,25,15.20
2014,09,20,04,26,15.20
2014,09,20,04,27,15.20
2014,09,20,04,28,15.20
2014,09,20,04,29,15.10
2014,09,20,04,30,15.10
2014,09,20,04,31,15.10
2014,09,20,04,32,15.10
2014,09,20,04,33,15.10
2014,09,20,04,34,15.10
2014,09,20,04,35,15.10
2014,09,20,04,36,15.10
2014,09,20,04,37,15.10
2014,09,20,04,38,15.10
2014,09,20,04,39,15.10
2014,09,20,04,40,15.10
2014,09,20,04,41,15.10
2014,09,20,04,42,15.10
2014,09,20,04,43,15.10
2014,09,20,04,44,15.10
2014,09,20,04,45,15.10
2014,09,20,04,46,15.10
2014,09,20,04,47,15.10
2014,09,20,04,48,15.10
2014,09,20,04,49,15.10
2014,09,20,04,50,15.10
2014,09,20,04,51,15.10
2014,09,20,04,52,15.10
2014,09,20,04,53,15.10
2014,09,20,04,54,15.10
2014,09,20,04,55,15.10
2014,09,20,04,56,15.10
2014,09,20,04,57,15.10
2014,09,20,04,58,15.10
2014,09,20,04,59,15.10
2014,09,20,05,00,15.10
2014,09,20,05,01,15.20
2014,09,20,05,02,15.20
2014,09,20,05,03,15.20
2014,09,20,05,04,15.20
2014,09,20,05,05,15.20
2014,09,20,05,06,15.20
2014,09,20,05,07,15.20
2014,09,20,05,08,15.20
2014,09,20,05,09,15.30
2014,09,20,05,10,15.30
2014,09,20,05,11,15.30
2014,09,20,05,12,15.30
2014,09,20,05,13,15.40
2014,09,20,05,14,15.40
2014,09,20,05,15,15.40
2014,09,20,05,16,15.40
2014,09,20,05,17,15.50
2014,09,20,05,18,15.50
2014,09,20,05,19,15.50
2014,09,20,05,20,15.60
2014,09,20,05,21,15.60
2014,09,20,05,22,15.60
2014,09,20,05,23,15.60
2014,09,20,05,24,15.60
2014,09,20,05,25,15.60
2014,09,20,05,26,15.60
2014,09,20,05,27,15.60
2014,09,20,05,28,15.60
2014,09,20,05,29,15.60
2014,09,20,05,30,15.60
2014,09,20,05,31,15.60
2014,09,20,05,32,15.60
2014,09,20,05,33,15.60
2014,09,20,05,34,15.60
2014,09,20,05,35,15.60
2014,09,20,05,36,15.60
2014,09,20,05,37,15.60
2014,09,20,05,38,15.60
2014,09,20,05,39,15.60
2014,09,20,05,40,15.70
2014,09,20,05,41,15.70
2014,09,20,05,42,15.70
2014,09,20,05,43,15.70
2014,09,20,05,44,15.70
2014,09,20,05,45,15.70
2014,09,20,05,46,15.70
2014,09,20,05,47,15.70
2014,09,20,05,48,15.70
2014,09,20,05,49,15.70
2014,09,20,05,50,15.70
2014,09,20,05,51,15.70
2014,09,20,05,52,15.60
2014,09,20,05,53,15.60
2014,09,20,05,54,15.60
2014,09,20,05,55,15.60
2014,09,20,05,56,15.60
2014,09,20,05,57,15.60
2014,09,20,05,58,15.70
2014,09,20,05,59,15.70
2014,09,20,06,00,15.70
2014,09,20,06,01,15.70
2014,09,20,06,02,15.70
2014,09,20,06,03,15.70
2014,09,20,06,04,15.70
2014,09,20,06,05,15.70
2014,09,20,06,06,15.70
2014,09,20,06,07,15.70
2014,09,20,06,08,15.70
2014,09,20,06,09,15.70
2014,09,20,06,10,15.70
2014,09,20,06,11,15.70
2014,09,20,06,12,15.80
2014,09,20,06,13,15.80
2014,09,20,06,14,15.80
2014,09,20,06,15,15.80
2014,09,20,06,16,15.80
2014,09,20,06,17,15.80
2014,09,20,06,18,15.80
2014,09,20,06,19,15.80
2014,09,20,06,20,15.80
2014,09,20,06,21,15.80
2014,09,20,06,22,15.80
2014,09,20,06,23,15.80
2014,09,20,06,24,15.80
2014,09,20,06,25,15.80
2014,09,20,06,26,15.80
2014,09,20,06,27,15.80
2014,09,20,06,28,15.80
2014,09,20,06,29,15.80
2014,09,20,06,30,15.80
2014,09,20,06,31,15.80
2014,09,20,06,32,15.80
2014,09,20,06,33,15.80
2014,09,20,06,34,15.80
2014,09,20,06,35,15.80
2014,09,20,06,36,15.80
2014,09,20,06,37,15.80
2014,09,20,06,38,15.80
2014,09,20,06,39,15.80
2014,09,20,06,40,15.80
2014,09,20,06,41,15.80
2014,09,20,06,42,15.80
2014,09,20,06,43,15.80
2014,09,20,06,44,15.80
2014,09,20,06,45,15.80
2014,09,20,06,46,15.80
2014,09,20,06,47,15.80
2014,09,20,06,48,15.70
2014,09,20,06,49,15.70
2014,09,20,06,50,15.70
2014,09,20,06,51,15.70
2014,09,20,06,52,15.70
2014,09,20,06,53,15.70
2014,09,20,06,54,15.70
2014,09,20,06,55,15.70
2014,09,20,06,56,15.70
2014,09,20,06,57,15.70
2014,09,20,06,58,15.70
2014,09,20,06,59,15.70
2014,09,20,07,00,15.70
2014,09,20,07,01,15.70
2014,09,20,07,02,15.70
2014,09,20,07,03,15.70
2014,09,20,07,04,15.70
2014,09,20,07,05,15.70
2014,09,20,07,06,15.70
2014,09,20,07,07,15.70
2014,09,20,07,08,15.70
2014,09,20,07,09,15.70
2014,09,20,07,10,15.70
2014,09,20,07,11,15.70
2014,09,20,07,12,15.70
2014,09,20,07,13,15.70
2014,09,20,07,14,15.60
2014,09,20,07,15,15.60
2014,09,20,07,16,15.60
2014,09,20,07,17,15.60
2014,09,20,07,18,15.60
2014,09,20,07,19,15.60
2014,09,20,07,20,15.60
2014,09,20,07,21,15.60
2014,09,20,07,22,15.60
2014,09,20,07,23,15.60
2014,09,20,07,24,15.60
2014,09,20,07,25,15.50
2014,09,20,07,26,15.50
2014,09,20,07,27,15.50
2014,09,20,07,28,15.50
2014,09,20,07,29,15.50
2014,09,20,07,30,15.50
2014,09,20,07,31,15.50
2014,09,20,07,32,15.50
2014,09,20,07,33,15.50
2014,09,20,07,34,15.50
2014,09,20,07,35,15.50
2014,09,20,07,36,15.50
2014,09,20,07,37,15.50
2014,09,20,07,38,15.50
2014,09,20,07,39,15.50
2014,09,20,07,40,15.60
2014,09,20,07,41,15.60
2014,09,20,07,42,15.60
2014,09,20,07,43,15.60
2014,09,20,07,44,15.60
2014,09,20,07,45,15.60
2014,09,20,07,46,15.60
2014,09,20,07,47,15.60
2014,09,20,07,48,15.60
2014,09,20,07,49,15.60
2014,09,20,07,50,15.60
2014,09,20,07,51,15.60
2014,09,20,07,52,15.60
2014,09,20,07,53,15.60
2014,09,20,07,54,15.60
2014,09,20,07,55,15.60
2014,09,20,07,56,15.60
2014,09,20,07,57,15.60
2014,09,20,07,58,15.60
2014,09,20,07,59,15.60
2014,09,20,08,00,15.60
2014,09,20,08,01,15.60
2014,09,20,08,02,15.60
2014,09,20,08,03,15.60
2014,09,20,08,04,15.60
2014,09,20,08,05,15.70
2014,09,20,08,06,15.70
2014,09,20,08,07,15.70
2014,09,20,08,08,15.70
2014,09,20,08,09,15.70
2014,09,20,08,10,15.70
2014,09,20,08,11,15.80
2014,09,20,08,12,15.80
2014,09,20,08,13,15.80
2014,09,20,08,14,15.80
2014,09,20,08,15,15.80
2014,09,20,08,16,15.80
2014,09,20,08,17,15.90
2014,09,20,08,18,15.90
2014,09,20,08,19,15.90
2014,09,20,08,20,15.90
2014,09,20,08,21,15.90
2014,09,20,08,22,15.90
2014,09,20,08,23,16.00
2014,09,20,08,24,16.00
2014,09,20,08,25,16.00
2014,09,20,08,26,16.00
2014,09,20,08,27,16.00
2014,09,20,08,28,16.00
2014,09,20,08,29,16.00
2014,09,20,08,30,16.00
2014,09,20,08,31,16.10
2014,09,20,08,32,16.10
2014,09,20,08,33,16.10
2014,09,20,08,34,16.10
2014,09,20,08,35,16.10
2014,09,20,08,36,16.10
2014,09,20,08,37,16.10
2014,09,20,08,38,16.10
2014,09,20,08,39,16.10
2014,09,20,08,40,16.20
2014,09,20,08,41,16.20
2014,09,20,08,42,16.20
2014,09,20,08,43,16.20
2014,09,20,08,44,16.20
2014,09,20,08,45,16.20
2014,09,20,08,46,16.20
2014,09,20,08,47,16.20
2014,09,20,08,48,16.20
2014,09,20,08,49,16.20
2014,09,20,08,50,16.20
2014,09,20,08,51,16.20
2014,09,20,08,52,16.20
2014,09,20,08,53,16.20
2014,09,20,08,54,16.30
2014,09,20,08,55,16.30
2014,09,20,08,56,16.30
2014,09,20,08,57,16.30
2014,09,20,08,58,16.30
2014,09,20,08,59,16.30
2014,09,20,09,00,16.30
2014,09,20,09,01,16.30
2014,09,20,09,02,16.30
2014,09,20,09,03,16.30
2014,09,20,09,04,16.30
2014,09,20,09,05,16.30
2014,09,20,09,06,16.40
2014,09,20,09,07,16.40
2014,09,20,09,08,16.40
2014,09,20,09,09,16.40
2014,09,20,09,10,16.40
2014,09,20,09,11,16.40
2014,09,20,09,12,16.40
2014,09,20,09,13,16.40
2014,09,20,09,14,16.50
2014,09,20,09,15,16.50
2014,09,20,09,16,16.50
2014,09,20,09,17,16.60
2014,09,20,09,18,16.60
2014,09,20,09,19,16.60
2014,09,20,09,20,16.70
2014,09,20,09,21,16.70
2014,09,20,09,22,16.70
2014,09,20,09,23,16.70
2014,09,20,09,24,16.80
2014,09,20,09,25,16.80
2014,09,20,09,26,16.80
2014,09,20,09,27,16.80
2014,09,20,09,28,16.90
2014,09,20,09,29,16.90
2014,09,20,09,30,16.90
2014,09,20,09,31,16.90
2014,09,20,09,32,17.00
2014,09,20,09,33,17.00
2014,09,20,09,34,17.00
2014,09,20,09,35,17.10
2014,09,20,09,36,17.20
2014,09,20,09,37,17.20
2014,09,20,09,38,17.20
2014,09,20,09,39,17.30
2014,09,20,09,40,17.30
2014,09,20,09,41,17.40
2014,09,20,09,42,17.40
2014,09,20,09,43,17.40
2014,09,20,09,44,17.40
2014,09,20,09,45,17.40
2014,09,20,09,46,17.40
2014,09,20,09,47,17.40
2014,09,20,09,48,17.30
2014,09,20,09,49,17.30
2014,09,20,09,50,17.30
2014,09,20,09,51,17.40
2014,09,20,09,52,17.40
2014,09,20,09,53,17.40
2014,09,20,09,54,17.50
2014,09,20,09,55,17.50
2014,09,20,09,56,17.60
2014,09,20,09,57,17.60
2014,09,20,09,58,17.60
2014,09,20,09,59,17.70
2014,09,20,10,00,17.70
2014,09,20,10,01,17.80
2014,09,20,10,02,17.90
2014,09,20,10,03,17.90
2014,09,20,10,04,18.00
2014,09,20,10,05,18.10
2014,09,20,10,06,18.20
2014,09,20,10,07,18.20
2014,09,20,10,08,18.20
2014,09,20,10,09,18.20
2014,09,20,10,10,18.30
2014,09,20,10,11,18.30
2014,09,20,10,12,18.30
2014,09,20,10,13,18.40
2014,09,20,10,14,18.40
2014,09,20,10,15,18.50
2014,09,20,10,16,18.60
2014,09,20,10,17,18.60
2014,09,20,10,18,18.70
2014,09,20,10,19,18.70
2014,09,20,10,20,18.70
2014,09,20,10,21,18.70
2014,09,20,10,22,18.70
2014,09,20,10,23,18.70
2014,09,20,10,24,18.70
2014,09,20,10,25,18.70
2014,09,20,10,26,18.70
2014,09,20,10,27,18.70
2014,09,20,10,28,18.80
2014,09,20,10,29,18.80
2014,09,20,10,30,18.80
2014,09,20,10,31,18.90
2014,09,20,10,32,18.80
2014,09,20,10,33,18.80
2014,09,20,10,34,18.80
2014,09,20,10,35,18.80
2014,09,20,10,36,18.80
2014,09,20,10,37,18.80
2014,09,20,10,38,18.80
2014,09,20,10,39,18.90
2014,09,20,10,40,18.90
2014,09,20,10,41,18.90
2014,09,20,10,42,18.80
2014,09,20,10,43,18.70
2014,09,20,10,44,18.70
2014,09,20,10,45,18.70
2014,09,20,10,46,18.70
2014,09,20,10,47,18.80
2014,09,20,10,48,18.80
2014,09,20,10,49,18.80
2014,09,20,10,50,18.90
2014,09,20,10,51,19.00
2014,09,20,10,52,19.10
2014,09,20,10,53,19.20
2014,09,20,10,54,19.20
2014,09,20,10,55,19.20
2014,09,20,10,56,19.10
2014,09,20,10,57,19.10
2014,09,20,10,58,19.10
2014,09,20,10,59,19.00
2014,09,20,11,00,19.10
2014,09,20,11,01,19.10
2014,09,20,11,02,19.20
2014,09,20,11,03,19.20
2014,09,20,11,04,19.20
2014,09,20,11,05,19.30
2014,09,20,11,06,19.40
2014,09,20,11,07,19.40
2014,09,20,11,08,19.40
2014,09,20,11,09,19.40
2014,09,20,11,10,19.40
2014,09,20,11,11,19.40
2014,09,20,11,12,19.50
2014,09,20,11,13,19.50
2014,09,20,11,14,19.60
2014,09,20,11,15,19.70
2014,09,20,11,16,19.70
2014,09,20,11,17,19.80
2014,09,20,11,18,19.80
2014,09,20,11,19,19.80
2014,09,20,11,20,19.80
2014,09,20,11,21,19.90
2014,09,20,11,22,19.90
2014,09,20,11,23,20.00
2014,09,20,11,24,20.00
2014,09,20,11,25,20.10
2014,09,20,11,26,20.20
2014,09,20,11,27,20.30
2014,09,20,11,28,20.50
2014,09,20,11,29,20.50
2014,09,20,11,30,20.60
2014,09,20,11,31,20.60
2014,09,20,11,32,20.60
2014,09,20,11,33,20.60
2014,09,20,11,34,20.60
2014,09,20,11,35,20.60
2014,09,20,11,36,20.50
2014,09,20,11,37,20.50
2014,09,20,11,38,20.40
2014,09,20,11,39,20.50
2014,09,20,11,40,20.50
2014,09,20,11,41,20.50
2014,09,20,11,42,20.50
2014,09,20,11,43,20.50
2014,09,20,11,44,20.60
2014,09,20,11,45,20.60
2014,09,20,11,46,20.60
2014,09,20,11,47,20.60
2014,09,20,11,48,20.60
2014,09,20,11,49,20.60
2014,09,20,11,50,20.50
2014,09,20,11,51,20.40
2014,09,20,11,52,20.40
2014,09,20,11,53,20.40
2014,09,20,11,54,20.40
2014,09,20,11,55,20.40
2014,09,20,11,56,20.40
2014,09,20,11,57,20.40
2014,09,20,11,58,20.50
2014,09,20,11,59,20.60
2014,09,20,12,00,20.70
2014,09,20,12,01,20.70
2014,09,20,12,02,20.70
2014,09,20,12,03,20.60
2014,09,20,12,04,20.70
2014,09,20,12,05,20.70
2014,09,20,12,06,20.70
2014,09,20,12,07,20.80
2014,09,20,12,08,20.80
2014,09,20,12,09,20.80
2014,09,20,12,10,20.80
2014,09,20,12,11,20.80
2014,09,20,12,12,20.90
2014,09,20,12,13,20.90
2014,09,20,12,14,20.80
2014,09,20,12,15,20.80
2014,09,20,12,16,20.80
2014,09,20,12,17,20.80
2014,09,20,12,18,20.80
2014,09,20,12,19,20.80
2014,09,20,12,20,20.70
2014,09,20,12,21,20.70
2014,09,20,12,22,20.70
2014,09,20,12,23,20.80
2014,09,20,12,24,20.80
2014,09,20,12,25,20.80
2014,09,20,12,26,20.80
2014,09,20,12,27,20.80
2014,09,20,12,28,20.80
2014,09,20,12,29,20.80
2014,09,20,12,30,20.80
2014,09,20,12,31,20.90
2014,09,20,12,32,20.90
2014,09,20,12,33,20.80
2014,09,20,12,34,20.80
2014,09,20,12,35,20.70
2014,09,20,12,36,20.70
2014,09,20,12,37,20.70
2014,09,20,12,38,20.60
2014,09,20,12,39,20.60
2014,09,20,12,40,20.50
2014,09,20,12,41,20.50
2014,09,20,12,42,20.60
2014,09,20,12,43,20.60
2014,09,20,12,44,20.50
2014,09,20,12,45,20.50
2014,09,20,12,46,20.40
2014,09,20,12,47,20.40
2014,09,20,12,48,20.40
2014,09,20,12,49,20.40
2014,09,20,12,50,20.40
2014,09,20,12,51,20.40
2014,09,20,12,52,20.40
2014,09,20,12,53,20.50
2014,09,20,12,54,20.50
2014,09,20,12,55,20.60
2014,09,20,12,56,20.60
2014,09,20,12,57,20.60
2014,09,20,12,58,20.60
2014,09,20,12,59,20.60
2014,09,20,13,00,20.60
2014,09,20,13,01,20.50
2014,09,20,13,02,20.50
2014,09,20,13,03,20.50
2014,09,20,13,04,20.60
2014,09,20,13,05,20.50
2014,09,20,13,06,20.40
2014,09,20,13,07,20.40
2014,09,20,13,08,20.40
2014,09,20,13,09,20.40
2014,09,20,13,10,20.50
2014,09,20,13,11,20.60
2014,09,20,13,12,20.60
2014,09,20,13,13,20.60
2014,09,20,13,14,20.60
2014,09,20,13,15,20.60
2014,09,20,13,16,20.70
2014,09,20,13,17,20.70
2014,09,20,13,18,20.70
2014,09,20,13,19,20.70
2014,09,20,13,20,20.70
2014,09,20,13,21,20.70
2014,09,20,13,22,20.70
2014,09,20,13,23,20.80
2014,09,20,13,24,20.80
2014,09,20,13,25,20.70
2014,09,20,13,26,20.70
2014,09,20,13,27,20.70
2014,09,20,13,28,20.70
2014,09,20,13,29,20.70
2014,09,20,13,30,20.80
2014,09,20,13,31,20.90
2014,09,20,13,32,21.00
2014,09,20,13,33,21.00
2014,09,20,13,34,21.00
2014,09,20,13,35,21.10
2014,09,20,13,36,21.10
2014,09,20,13,37,21.20
2014,09,20,13,38,21.30
2014,09,20,13,39,21.40
2014,09,20,13,40,21.40
2014,09,20,13,41,21.30
2014,09,20,13,42,21.30
2014,09,20,13,43,21.30
2014,09,20,13,44,21.20
2014,09,20,13,45,21.20
2014,09,20,13,46,21.20
2014,09,20,13,47,21.30
2014,09,20,13,48,21.30
2014,09,20,13,49,21.30
2014,09,20,13,50,21.30
2014,09,20,13,51,21.40
2014,09,20,13,52,21.40
2014,09,20,13,53,21.50
2014,09,20,13,54,21.50
2014,09,20,13,55,21.60
2014,09,20,13,56,21.60
2014,09,20,13,57,21.60
2014,09,20,13,58,21.60
2014,09,20,13,59,21.60
2014,09,20,14,00,21.60
2014,09,20,14,01,21.70
2014,09,20,14,02,21.70
2014,09,20,14,03,21.70
2014,09,20,14,04,21.60
2014,09,20,14,05,21.60
2014,09,20,14,06,21.70
2014,09,20,14,07,21.70
2014,09,20,14,08,21.70
2014,09,20,14,09,21.70
2014,09,20,14,10,21.80
2014,09,20,14,11,21.80
2014,09,20,14,12,21.80
2014,09,20,14,13,21.90
2014,09,20,14,14,21.90
2014,09,20,14,15,21.90
2014,09,20,14,16,21.80
2014,09,20,14,17,21.80
2014,09,20,14,18,21.90
2014,09,20,14,19,21.90
2014,09,20,14,20,21.90
2014,09,20,14,21,21.90
2014,09,20,14,22,21.90
2014,09,20,14,23,22.00
2014,09,20,14,24,22.10
2014,09,20,14,25,22.10
2014,09,20,14,26,22.10
2014,09,20,14,27,22.10
2014,09,20,14,28,22.10
2014,09,20,14,29,22.20
2014,09,20,14,30,22.30
2014,09,20,14,31,22.40
2014,09,20,14,32,22.50
2014,09,20,14,33,22.60
2014,09,20,14,34,22.70
2014,09,20,14,35,22.80
2014,09,20,14,36,22.80
2014,09,20,14,37,22.80
2014,09,20,14,38,22.90
2014,09,20,14,39,22.90
2014,09,20,14,40,22.90
2014,09,20,14,41,23.00
2014,09,20,14,42,23.10
2014,09,20,14,43,23.10
2014,09,20,14,44,23.20
2014,09,20,14,45,23.20
2014,09,20,14,46,23.10
2014,09,20,14,47,23.20
2014,09,20,14,48,23.20
2014,09,20,14,49,23.20
2014,09,20,14,50,23.20
2014,09,20,14,51,23.10
2014,09,20,14,52,23.00
2014,09,20,14,53,22.90
2014,09,20,14,54,22.90
2014,09,20,14,55,22.80
2014,09,20,14,56,22.80
2014,09,20,14,57,22.80
2014,09,20,14,58,22.80
2014,09,20,14,59,22.80
2014,09,20,15,00,22.80
2014,09,20,15,01,22.80
2014,09,20,15,02,22.70
2014,09,20,15,03,22.70
2014,09,20,15,04,22.60
2014,09,20,15,05,22.60
2014,09,20,15,06,22.60
2014,09,20,15,07,22.60
2014,09,20,15,08,22.70
2014,09,20,15,09,22.70
2014,09,20,15,10,22.70
2014,09,20,15,11,22.80
2014,09,20,15,12,22.80
2014,09,20,15,13,22.90
2014,09,20,15,14,22.90
2014,09,20,15,15,22.80
2014,09,20,15,16,22.80
2014,09,20,15,17,22.70
2014,09,20,15,18,22.70
2014,09,20,15,19,22.70
2014,09,20,15,20,22.60
2014,09,20,15,21,22.40
2014,09,20,15,22,22.40
2014,09,20,15,23,22.40
2014,09,20,15,24,22.40
2014,09,20,15,25,22.40
2014,09,20,15,26,22.50
2014,09,20,15,27,22.50
2014,09,20,15,28,22.60
2014,09,20,15,29,22.60
2014,09,20,15,30,22.70
2014,09,20,15,31,22.70
2014,09,20,15,32,22.70
2014,09,20,15,33,22.70
2014,09,20,15,34,22.80
2014,09,20,15,35,22.80
2014,09,20,15,36,22.80
2014,09,20,15,37,22.80
2014,09,20,15,38,22.80
2014,09,20,15,39,22.90
2014,09,20,15,40,22.90
2014,09,20,15,41,23.00
2014,09,20,15,42,23.10
2014,09,20,15,43,23.20
2014,09,20,15,44,23.20
2014,09,20,15,45,23.20
2014,09,20,15,46,23.20
2014,09,20,15,47,23.20
2014,09,20,15,48,23.20
2014,09,20,15,49,23.20
2014,09,20,15,50,23.10
2014,09,20,15,51,23.10
2014,09,20,15,52,23.10
2014,09,20,15,53,23.10
2014,09,20,15,54,23.10
2014,09,20,15,55,23.10
2014,09,20,15,56,23.10
2014,09,20,15,57,23.00
2014,09,20,15,58,23.00
2014,09,20,15,59,23.00
2014,09,20,16,00,22.90
2014,09,20,16,01,22.90
2014,09,20,16,02,22.90
2014,09,20,16,03,22.90
2014,09,20,16,04,22.90
2014,09,20,16,05,22.80
2014,09,20,16,06,22.80
2014,09,20,16,07,22.80
2014,09,20,16,08,22.80
2014,09,20,16,09,22.80
2014,09,20,16,10,22.80
2014,09,20,16,11,22.80
2014,09,20,16,12,22.90
2014,09,20,16,13,22.90
2014,09,20,16,14,22.90
2014,09,20,16,15,22.90
2014,09,20,16,16,22.90
2014,09,20,16,17,22.90
2014,09,20,16,18,22.90
2014,09,20,16,19,22.90
2014,09,20,16,20,22.90
2014,09,20,16,21,22.80
2014,09,20,16,22,22.90
2014,09,20,16,23,22.90
2014,09,20,16,24,22.80
2014,09,20,16,25,22.80
2014,09,20,16,26,22.80
2014,09,20,16,27,22.80
2014,09,20,16,28,22.80
2014,09,20,16,29,22.90
2014,09,20,16,30,22.90
2014,09,20,16,31,22.90
2014,09,20,16,32,23.00
2014,09,20,16,33,23.00
2014,09,20,16,34,23.10
2014,09,20,16,35,23.20
2014,09,20,16,36,23.30
2014,09,20,16,37,23.40
2014,09,20,16,38,23.40
2014,09,20,16,39,23.40
2014,09,20,16,40,23.40
2014,09,20,16,41,23.40
2014,09,20,16,42,23.30
2014,09,20,16,43,23.30
2014,09,20,16,44,23.30
2014,09,20,16,45,23.20
2014,09,20,16,46,23.20
2014,09,20,16,47,23.20
2014,09,20,16,48,23.20
2014,09,20,16,49,23.20
2014,09,20,16,50,23.30
2014,09,20,16,51,23.30
2014,09,20,16,52,23.30
2014,09,20,16,53,23.20
2014,09,20,16,54,23.30
2014,09,20,16,55,23.30
2014,09,20,16,56,23.30
2014,09,20,16,57,23.30
2014,09,20,16,58,23.20
2014,09,20,16,59,23.20
2014,09,20,17,00,23.20
2014,09,20,17,01,23.20
2014,09,20,17,02,23.20
2014,09,20,17,03,23.20
2014,09,20,17,04,23.10
2014,09,20,17,05,23.10
2014,09,20,17,06,23.10
2014,09,20,17,07,23.20
2014,09,20,17,08,23.20
2014,09,20,17,09,23.20
2014,09,20,17,10,23.20
2014,09,20,17,11,23.20
2014,09,20,17,12,23.20
2014,09,20,17,13,23.30
2014,09,20,17,14,23.30
2014,09,20,17,15,23.30
2014,09,20,17,16,23.30
2014,09,20,17,17,23.30
2014,09,20,17,18,23.30
2014,09,20,17,19,23.30